Weather History for Chapel Hill, NC

Change the Weather History Date:

Monday, February 25, 2013

  Actual Average Record
Temperature  
Mean Temperature 38 °F -  
Max Temperature 42 °F 56 °F 80 °F (1982)
Min Temperature 33 °F 31 °F 8 °F (1967)
Degree Days  
Heating Degree Days 28    
Moisture  
Dew Point 22 °F    
Average Humidity 54    
Maximum Humidity 64    
Minimum Humidity 43    
Precipitation  
Precipitation 0.00 in - - ()
Sea Level Pressure  
Sea Level Pressure 30.16 in    
Wind  
Wind Speed 7 mph (NE)    
Max Wind Speed 12 mph    
Max Gust Speed 20 mph    
Visibility 10 miles    
Events      
Averages and records for this station are not official NWS values.
T = Trace of Precipitation, MM = Missing Value Source: NWS Daily Summary

Daily Weather History Graph

Daily Weather History Graph

Search for Another Location

Airport:

Trip Planner

Search our weather history database for the weather conditions in past years. The results will help you decide how hot, cold, wet, or windy it might be!

Date:

Astronomy

Feb. 25, 2013 Rise Set
Actual Time 6:51 AM EST 6:07 PM EST
Civil Twilight 6:25 AM EST 6:33 PM EST
Nautical Twilight 5:55 AM EST 7:03 PM EST
Astronomical Twilight 5:26 AM EST 7:33 PM EST
Moon 6:17 PM EST (2/25) 6:21 AM EST (2/25)
Length of Visible Light 12h 08m
Length of Day
11h 16m
Full, 100% of the Moon is Illuminated
Feb 25
Full
Feb 25
Full
Mar 4
Last Quarter
Mar 11
New
Mar 19
First Quarter

Hourly Weather History & Observations

Time (EST) Temp. Windchill Dew Point Humidity Pressure Visibility Wind Dir Wind Speed Gust Speed Precip Events Conditions
12:56 AM 42.1 °F 40.2 °F 21.9 °F 45% 30.06 in 10.0 mi NNW 3.5 mph - N/A   Clear
1:56 AM 41.0 °F 35.8 °F 21.9 °F 47% 30.08 in 10.0 mi NE 8.1 mph - N/A   Clear
2:56 AM 37.9 °F 31.5 °F 25.0 °F 60% 30.09 in 10.0 mi NE 9.2 mph - N/A   Clear
3:56 AM 36.0 °F 28.5 °F 24.1 °F 62% 30.09 in 10.0 mi NE 10.4 mph 19.6 mph N/A   Clear
4:56 AM 35.1 °F 27.9 °F 23.0 °F 61% 30.12 in 10.0 mi ENE 9.2 mph - N/A   Clear
5:56 AM 34.0 °F 26.6 °F 21.9 °F 61% 30.14 in 10.0 mi NE 9.2 mph - N/A   Clear
6:56 AM 33.1 °F 24.4 °F 21.0 °F 61% 30.16 in 10.0 mi ENE 11.5 mph - N/A   Clear
7:56 AM 33.1 °F 26.9 °F 19.9 °F 59% 30.19 in 10.0 mi ENE 6.9 mph - N/A   Clear
8:56 AM 35.1 °F 29.3 °F 19.9 °F 54% 30.21 in 10.0 mi ENE 6.9 mph - N/A   Clear
9:56 AM 37.0 °F 30.4 °F 19.9 °F 50% 30.23 in 10.0 mi NE 9.2 mph - N/A   Clear
10:56 AM 37.9 °F 32.7 °F 19.9 °F 48% 30.22 in 10.0 mi ENE 6.9 mph - N/A   Clear
11:56 AM 39.9 °F 36.7 °F 19.9 °F 45% 30.21 in 10.0 mi Variable 4.6 mph - N/A   Clear
12:56 PM 41.0 °F 37.1 °F 21.0 °F 45% 30.17 in 10.0 mi Variable 5.8 mph - N/A   Clear
1:56 PM 41.0 °F 38.0 °F 19.9 °F 43% 30.18 in 10.0 mi Variable 4.6 mph - N/A   Clear
2:56 PM 41.0 °F 35.2 °F 21.0 °F 45% 30.16 in 10.0 mi NE 9.2 mph - N/A   Clear
3:56 PM 41.0 °F 37.1 °F 21.0 °F 45% 30.15 in 10.0 mi NNE 5.8 mph - N/A   Clear
4:56 PM 39.9 °F 35.8 °F 21.9 °F 49% 30.15 in 10.0 mi NE 5.8 mph - N/A   Clear
5:56 PM 39.0 °F 34.0 °F 21.9 °F 50% 30.16 in 10.0 mi NE 6.9 mph - N/A   Clear
6:56 PM 37.0 °F 34.5 °F 21.9 °F 54% 30.17 in 10.0 mi NNE 3.5 mph - N/A   Clear
7:56 PM 35.1 °F 32.2 °F 24.1 °F 64% 30.18 in 10.0 mi NNE 3.5 mph - N/A   Clear
8:56 PM 35.1 °F 30.1 °F 23.0 °F 61% 30.17 in 10.0 mi ENE 5.8 mph - N/A   Clear
9:56 PM 36.0 °F 32.1 °F 21.9 °F 57% 30.17 in 10.0 mi ENE 4.6 mph - N/A   Clear
10:56 PM 36.0 °F 31.1 °F 23.0 °F 59% 30.15 in 10.0 mi ENE 5.8 mph - N/A   Clear
11:56 PM 36.0 °F 29.0 °F 23.0 °F 59% 30.15 in 10.0 mi NE 9.2 mph - N/A   Scattered Clouds